Tracking 31027 objects as of 18-Jul-2025
HD Live streaming from Space Station
objects crossing your sky now

COSMOS 839 DEB

Track COSMOS 839 DEB now!
10-day predictions


NORAD ID: 10410
Int'l Code: 1976-067D
Perigee: 1,003.1 km
Apogee: 2,084.0 km
Inclination: 66.1 °
Period: 116.8 minutes
Semi major axis: 7914 km
RCS: 0.3034 m2 (medium)
Launch date: July 8, 1976
Source: Commonwealth of Independent States (former USSR) (CIS)
Launch site: PLESETSK MISSILE AND SPACE COMPLEX (PKMTR)

Note: This is SATELLITE DEBRIS
Your satellite tracking list
Your tracking list is empty




NASA's NSSDC Master Catalog

Two Line Element Set (TLE):
1 10410U 76067D   25199.34700652 -.00000059  00000-0 -20567-4 0  9995
2 10410  66.0885 148.4650 0682846 148.1977  10.7953 12.33005063207265
Source of the keplerian elements: AFSPC